Angel Fire, NM

8:42 AM MST on December 06, 2019 (GMT -0700)
Angel Fire

Weather History for KAXX - October, 2019

Change the Weather History Date:

Tuesday, October 1, 2019

  Actual Average (WUND) Record (WUND)
Temperature  
Mean Temperature 58 °F -  
Max Temperature 67 °F - - (-1)
Min Temperature 50 °F - - (-1)
Degree Days  
Heating Degree Days 6    
Growing Degree Days 8 (Base 50)    
Moisture  
Dew Point 39 °F    
Average Humidity 55    
Maximum Humidity 93    
Minimum Humidity 23    
Precipitation  
Precipitation 0.00 in - - ()
Sea Level Pressure  
Sea Level Pressure 30.13 in    
Wind  
Wind Speed 10 mph (SW)    
Max Wind Speed 21 mph    
Max Gust Speed 30 mph    
Visibility 10 miles    
Events      
Averages and records for this station are not official NWS values.
T = Trace of Precipitation, MM = Missing Value Source: NWS Daily Summary

Daily Weather History Graph

Daily Weather History Graph

Search for Another Location

Airport or City:

Astronomy

Oct. 01, 2019 Rise Set
Actual Time 6:56 AM MDT 6:44 PM MDT
Civil Twilight 6:30 AM MDT 7:10 PM MDT
Nautical Twilight 6:00 AM MDT 7:40 PM MDT
Astronomical Twilight 5:30 AM MDT 8:10 PM MDT
Moon 10:10 AM MDT (10/1) 9:05 PM MDT (10/1)
Length of Visible Light 12h 40m
Length of Day
11h 48m
Waxing Crescent, 12% of the Moon is Illuminated
Oct 1
Waxing Crescent
Oct 5
First Quarter
Oct 13
Full
Oct 21
Last Quarter
Oct 27
New

Hourly Weather History & Observations

Time (MDT) Temp. Dew Point Humidity Pressure Visibility Wind Dir Wind Speed Gust Speed Precip Events Conditions
12:15 AM 54.5 °F 51.3 °F 89% 30.14 in 10.0 mi SSW 13.8 mph - N/A   Clear
12:35 AM 54.5 °F 51.3 °F 89% 30.13 in 10.0 mi SSW 13.8 mph - N/A   Clear
12:55 AM 54.5 °F 51.1 °F 88% 30.13 in 10.0 mi SSW 10.4 mph - N/A   Clear
1:15 AM 54.5 °F 50.7 °F 87% 30.13 in 10.0 mi SW 10.4 mph - N/A   Clear
1:35 AM 53.6 °F 50.0 °F 88% 30.13 in 10.0 mi SSW 8.1 mph - N/A   Clear
1:55 AM 54.3 °F 49.1 °F 83% 30.13 in 10.0 mi SSW 10.4 mph - N/A   Clear
2:15 AM 54.0 °F 48.6 °F 82% 30.13 in 10.0 mi SSW 13.8 mph 18.4 mph N/A   Clear
2:35 AM 55.4 °F 48.6 °F 78% 30.12 in 10.0 mi SSW 9.2 mph - N/A   Scattered Clouds
2:55 AM 55.4 °F 49.1 °F 79% 30.12 in 10.0 mi South 9.2 mph - N/A   Scattered Clouds
3:15 AM 55.0 °F 50.0 °F 83% 30.11 in 10.0 mi South 6.9 mph 10.4 mph N/A   Clear
3:35 AM 54.1 °F 50.2 °F 86% 30.11 in 10.0 mi South 9.2 mph - N/A   Clear
3:55 AM 53.6 °F 49.6 °F 86% 30.11 in 10.0 mi Calm Calm - N/A   Clear
4:15 AM 53.1 °F 50.2 °F 90% 30.11 in 10.0 mi Calm Calm - N/A   Scattered Clouds
4:35 AM 54.1 °F 49.8 °F 85% 30.12 in 10.0 mi ESE 3.5 mph - N/A   Scattered Clouds
4:55 AM 52.7 °F 49.8 °F 90% 30.12 in 10.0 mi SSE 5.8 mph - N/A   Clear
5:15 AM 53.1 °F 50.0 °F 89% 30.12 in 10.0 mi South 5.8 mph - N/A   Clear
5:35 AM 52.7 °F 50.0 °F 91% 30.12 in 10.0 mi Calm Calm - N/A   Clear
5:55 AM 50.9 °F 48.9 °F 93% 30.12 in 10.0 mi SE 4.6 mph - N/A   Clear
6:15 AM 51.8 °F 48.2 °F 88% 30.12 in 10.0 mi SSE 4.6 mph - N/A   Clear
6:35 AM 52.0 °F 48.6 °F 88% 30.13 in 10.0 mi Calm Calm - N/A   Scattered Clouds
6:55 AM 50.2 °F 46.9 °F 89% 30.13 in 10.0 mi SSE 5.8 mph - N/A   Clear
7:15 AM 50.0 °F 47.3 °F 90% 30.13 in 10.0 mi SSE 5.8 mph - N/A   Mostly Cloudy
7:35 AM 50.0 °F 47.3 °F 90% 30.14 in 10.0 mi SE 4.6 mph - N/A   Mostly Cloudy
7:55 AM 50.4 °F 47.7 °F 90% 30.14 in 10.0 mi South 6.9 mph - N/A   Scattered Clouds
8:15 AM 53.8 °F 47.5 °F 79% 30.14 in 10.0 mi South 5.8 mph - N/A   Scattered Clouds
8:35 AM 56.3 °F 46.8 °F 70% 30.14 in 10.0 mi SSW 4.6 mph - N/A   Scattered Clouds
8:55 AM 56.8 °F 46.6 °F 69% 30.14 in 10.0 mi Calm Calm - N/A   Scattered Clouds
9:15 AM 58.1 °F 44.1 °F 60% 30.14 in 10.0 mi Calm Calm - N/A   Scattered Clouds
9:35 AM 59.2 °F 43.7 °F 57% 30.15 in 10.0 mi WSW 9.2 mph 19.6 mph N/A   Scattered Clouds
9:55 AM 60.3 °F 42.6 °F 52% 30.14 in 10.0 mi West 11.5 mph 17.3 mph N/A   Mostly Cloudy
10:15 AM 61.3 °F 41.9 °F 49% 30.15 in 10.0 mi WSW 12.7 mph 21.9 mph N/A   Overcast
10:35 AM 60.4 °F 38.7 °F 45% 30.15 in 10.0 mi West 13.8 mph 27.6 mph N/A   Mostly Cloudy
10:55 AM 63.9 °F 38.3 °F 39% 30.14 in 10.0 mi WSW 15.0 mph 20.7 mph N/A   Mostly Cloudy
11:15 AM 64.0 °F 41.5 °F 44% 30.15 in 10.0 mi West 10.4 mph 13.8 mph N/A   Scattered Clouds
11:35 AM 66.0 °F 36.1 °F 33% 30.14 in 10.0 mi West 10.4 mph - N/A   Scattered Clouds
11:55 AM 67.1 °F 33.3 °F 29% 30.15 in 10.0 mi WSW 19.6 mph 25.3 mph N/A   Clear
12:15 PM 66.6 °F 32.5 °F 28% 30.14 in 10.0 mi WSW 17.3 mph 29.9 mph N/A   Clear
12:35 PM 66.4 °F 33.1 °F 29% 30.14 in 10.0 mi West 13.8 mph 23.0 mph N/A   Clear
12:55 PM 66.2 °F 33.3 °F 29% 30.14 in 10.0 mi WSW 18.4 mph 25.3 mph N/A   Clear
1:15 PM 64.6 °F 30.6 °F 28% 30.12 in 10.0 mi WSW 10.4 mph 24.2 mph N/A   Clear
1:35 PM 65.5 °F 30.9 °F 27% 30.12 in 10.0 mi WSW 13.8 mph 23.0 mph N/A   Clear
1:55 PM 66.4 °F 30.4 °F 26% 30.12 in 10.0 mi WSW 13.8 mph 25.3 mph N/A   Clear
2:15 PM 65.8 °F 26.4 °F 23% 30.11 in 10.0 mi WSW 20.7 mph 29.9 mph N/A   Clear
2:35 PM 66.0 °F 30.2 °F 26% 30.11 in 10.0 mi WSW 13.8 mph 24.2 mph N/A   Clear
2:55 PM 65.7 °F 32.2 °F 29% 30.11 in 10.0 mi SW 13.8 mph 20.7 mph N/A   Clear
3:15 PM 66.4 °F 32.5 °F 28% 30.11 in 10.0 mi WSW 9.2 mph 21.9 mph N/A   Clear
3:35 PM 65.7 °F 31.6 °F 28% 30.11 in 10.0 mi WSW 17.3 mph 23.0 mph N/A   Clear
3:55 PM 64.6 °F 31.8 °F 29% 30.10 in 10.0 mi SW 11.5 mph 23.0 mph N/A   Clear
4:15 PM 64.0 °F 30.9 °F 29% 30.12 in 10.0 mi WSW 17.3 mph 23.0 mph N/A   Clear
4:35 PM 63.7 °F 31.6 °F 30% 30.12 in 10.0 mi SW 12.7 mph 17.3 mph N/A   Clear
4:55 PM 62.8 °F 31.8 °F 31% 30.12 in 10.0 mi WSW 15.0 mph - N/A   Clear
5:15 PM 62.6 °F 30.7 °F 30% 30.12 in 10.0 mi SSW 13.8 mph 20.7 mph N/A   Scattered Clouds
5:35 PM 61.9 °F 31.3 °F 32% 30.12 in 10.0 mi SW 10.4 mph 18.4 mph N/A   Scattered Clouds
5:55 PM 61.2 °F 32.0 °F 33% 30.13 in 10.0 mi SW 15.0 mph 21.9 mph N/A   Mostly Cloudy
6:15 PM 60.8 °F 32.9 °F 35% 30.14 in 10.0 mi SSW 12.7 mph 16.1 mph N/A   Scattered Clouds
6:35 PM 60.1 °F 33.8 °F 37% 30.14 in 10.0 mi SSW 6.9 mph - N/A   Scattered Clouds
6:55 PM 59.2 °F 33.8 °F 38% 30.14 in 10.0 mi SSW 8.1 mph - N/A   Mostly Cloudy
7:15 PM 59.4 °F 34.0 °F 39% 30.13 in 10.0 mi SW 8.1 mph - N/A   Overcast
7:35 PM 58.6 °F 33.3 °F 38% 30.14 in 10.0 mi SW 5.8 mph - N/A   Overcast
7:55 PM 58.5 °F 31.8 °F 37% 30.13 in 10.0 mi SSW 6.9 mph - N/A   Overcast
8:15 PM 55.9 °F 35.2 °F 46% 30.14 in 10.0 mi West 5.8 mph - N/A   Overcast
8:35 PM 53.8 °F 36.5 °F 52% 30.15 in 10.0 mi WNW 5.8 mph - N/A   Overcast
8:55 PM 52.7 °F 36.1 °F 53% 30.16 in 10.0 mi NW 6.9 mph - N/A   Overcast
9:15 PM 54.0 °F 34.7 °F 48% 30.16 in 10.0 mi SW 8.1 mph - N/A   Overcast
9:35 PM 54.9 °F 32.4 °F 42% 30.16 in 10.0 mi West 5.8 mph - N/A   Mostly Cloudy
9:55 PM 54.3 °F 32.2 °F 43% 30.16 in 10.0 mi WSW 5.8 mph - N/A   Mostly Cloudy
10:15 PM 55.9 °F 31.1 °F 39% 30.16 in 10.0 mi SW 8.1 mph - N/A   Mostly Cloudy
10:35 PM 56.5 °F 29.3 °F 35% 30.17 in 10.0 mi SSW 9.2 mph - N/A   Scattered Clouds
10:55 PM 56.8 °F 29.1 °F 35% 30.17 in 10.0 mi SW 9.2 mph - N/A   Scattered Clouds
11:15 PM 55.8 °F 29.5 °F 37% 30.17 in 10.0 mi SW 6.9 mph - N/A   Scattered Clouds
11:35 PM 55.8 °F 28.4 °F 35% 30.16 in 10.0 mi SW 16.1 mph 20.7 mph N/A   Scattered Clouds
11:55 PM 56.3 °F 28.4 °F 34% 30.17 in 10.0 mi SSW 12.7 mph 18.4 mph N/A   Clear